Regional Weather Roundup
Issued by NWS State College, PA

Current Version | Previous Version | Text Only | Print | Product List | Glossary On
Versions: 1 2 3 4 5 6 7 8 9 10 11 12 13 14 15 16 17 18 19 20 21 22 23 24 25 26 27 28 29 30 31 32 33 34 35 36 37 38 39 40 41 42 43 44 45 46 47 48 49 50
000
ASUS41 KCTP 160710
RWRCTP

REGIONAL WEATHER ROUNDUP
NATIONAL WEATHER SERVICE STATE COLLEGE PA
200 AM EST TUE JAN 16 2018

Note: "fair" indicates few or no clouds below 12,000 feet with no
significant weather and/or obstructions to visibility.

* = STATION THAT DOES NOT REPORT PRECIPITATION /E.G. RAIN...SNOW...ETC/
    THUNDER OR FOG.

PAZ002>004-007>009-013>016-020>023-029>032-160800-
WESTERN PENNSYLVANIA

CITY           SKY/WX    TMP DP  RH WIND       PRES   REMARKS
ERIE           CLOUDY    26  21  81 SW7       30.29R
MEADVILLE      LGT SNOW  24  23  96 SW5       30.26R FOG
FRANKLIN*      LGT SNOW  21  19  92 S6        30.26R FOG     WCI  13
NEW CASTLE     LGT SNOW  26  25  96 CALM      30.30R FOG
BEAVER COUNTY  NOT AVBL
BUTLER*        LGT SNOW  23  21  92 S3        30.29S FOG
PITTSBURGH INT FLURRIES  26  24  92 SW6       30.29R
PITTSBURGH     LGT SNOW  26  22  84 SW8       30.29R FOG
INDIANA*       CLOUDY    25  21  86 SW5       30.32R FOG
LATROBE        LGT RAIN  28  25  86 S6        30.32R
WASHINGTON CO* FLURRIES  27  25  93 SW7       30.33R
$$

PAZ004>006-010>012-017>019-024>028-033>037-041-042-045-046-049>053-160800-
CENTRAL PENNSYLVANIA

CITY           SKY/WX    TMP DP  RH WIND       PRES   REMARKS
BRADFORD       LGT SNOW  18  15  88 S7        30.21S FOG     WCI   9
DUBOIS         LGT SNOW  19  15  84 CALM      30.24R FOG
CLEARFIELD     LGT SNOW  19  17  92 N3        30.29S FOG
JOHNSTOWN      CLOUDY    21  13  71 SW3       30.23S
ALTOONA        CLOUDY    24  16  71 S8        30.32S
STATE COLLEGE  CLOUDY    21  18  87 CALM      30.34S
WILLIAMSPORT   LGT SNOW  23  20  88 NE7       30.40R FOG     WCI  15
SELINSGROVE    CLOUDY    25  19  78 SW3       30.44R
FT INDIANTOWN  CLOUDY    25  20  81 CALM      30.44R
CAPITAL CITY   CLOUDY    28  19  69 CALM      30.45S
HARRISBURG     CLOUDY    26  18  71 E3        30.44S
YORK           CLOUDY    27  24  89 VRB3      30.42S
$$

PAZ038>040-043-044-047-048-054-055-060>062-067>071-160800-
EASTERN PENNSYLVANIA

CITY           SKY/WX    TMP DP  RH WIND       PRES   REMARKS
SCRANTON       CLOUDY    25  19  78 CALM      30.38S
MOUNT POCONO   CLOUDY    17  15  92 SE5       30.33S WCI  10
ALLENTOWN      CLOUDY    27  17  66 E5        30.46R
QUAKERTOWN*    CLOUDY    27  23  86 MISG      30.45S
READING        CLOUDY    29  24  82 SE5       30.45R
LANCASTER      CLOUDY    27  21  78 CALM      30.45R
COATESVILLE    CLOUDY    28  27  93 CALM      30.45R
POTTSTOWN      CLOUDY    27  22  81 CALM      30.47S
BLUE BELL      CLOUDY    28  25  86 CALM      30.48S
DOYLESTOWN     CLOUDY    26  21  81 CALM      30.46S
WILLOW GROVE   NOT AVBL
NORTH PHILA    CLOUDY    30  23  75 NE5       30.49F
PHILADELPHIA   CLOUDY    30  23  75 CALM      30.49S
$$



USA.gov is the U.S. government's official web portal to all federal, state and local government web resources and services.